Theta_e
344 344 348 348 359 357 356 352 351 353 353 350 350 352 353 352 354 355 345 341 335 338 340 339 339 340 341 340 339 338 339 337 337 338 332 336 336 331 336 335 334 327 335 331 338 338 333 332 333
346 351 351 353 359 356 356 356 358 353 351 351 352 352 352 352 351 349 350 345 340 341 342 340 341 342 341 340 340 339 336 332 332 332 337 338 330 338 338 331 341 332 332 338 332 331 334 330 335
350 352 353 354 357 357 361 356 355 352 353 353 353 351 352 351 351 351 350 347 343 342 341 342 342 342 340 335 332 333 334 336 340 341 340 332 336 337 332 332 338 339 339 337 335 333 331 332 336
352 353 353 355 355 354 357 355 352 352 352 352 351 351 351 351 350 350 348 345 344 342 342 341 337 335 339 338 342 343 339 340 340 340 340 330 331 330 334 334 338 331 331 331 330 328 329 333 340
354 353 358 350 352 351 349 351 352 351 352 352 351 352 351 350 349 346 346 347 343 341 334 333 336 339 339 340 340 339 339 339 339 341 334 334 338 338 337 341 338 338 338 336 332 332 330 332 342
353 354 360 357 354 353 352 350 350 352 352 352 352 351 351 350 348 347 347 347 343 339 331 339 340 340 341 339 339 340 340 340 339 340 339 338 336 336 337 335 338 338 338 338 337 333 331 328 342
352 353 359 358 356 357 357 354 351 352 352 350 351 351 351 348 347 348 346 345 343 330 333 337 341 340 342 336 338 338 339 340 340 338 337 335 336 336 336 336 338 339 339 336 335 332 330 330 340
353 348 353 356 358 359 354 351 353 354 352 351 350 351 350 349 348 348 346 345 343 332 332 340 341 337 334 339 338 338 340 339 338 338 335 341 342 340 336 335 336 338 338 337 335 333 332 339 344
350 351 353 357 358 352 344 350 352 354 351 351 352 350 347 347 348 345 345 346 346 341 333 343 337 340 338 337 336 337 337 338 338 336 344 347 345 339 336 336 335 335 339 336 337 334 336 340 342
346 349 352 352 352 353 347 347 349 355 353 351 350 351 347 349 349 344 347 348 346 341 337 341 334 339 340 338 337 338 338 342 343 344 347 346 346 344 337 335 334 335 338 336 337 336 340 342 342
342 347 348 349 350 351 352 342 345 352 352 352 350 350 349 350 347 344 346 346 343 343 345 343 342 339 339 338 339 344 339 343 343 345 347 348 347 342 338 340 339 338 339 341 341 333 335 337 340
341 343 345 346 350 351 350 354 355 350 352 352 350 348 349 348 346 345 344 344 342 346 346 345 344 345 344 340 344 345 345 344 342 346 345 346 344 344 344 345 343 342 332 336 339 340 341 342 343
339 340 342 344 350 351 355 355 347 350 352 352 351 348 349 347 345 344 346 345 341 345 346 346 345 348 345 348 347 346 348 347 342 343 346 347 344 345 346 346 345 344 339 342 335 341 341 342 341
337 339 339 341 342 348 354 354 346 348 350 351 351 349 348 347 344 343 344 343 343 344 347 345 346 348 344 349 350 347 348 348 347 345 345 345 347 348 347 343 342 343 342 343 343 341 343 341 342
335 331 330 334 336 341 351 355 355 352 349 352 351 350 348 347 344 343 342 342 341 346 347 345 343 347 345 347 349 349 347 348 349 347 345 345 347 348 350 344 345 346 341 342 342 343 342 342 343
328 326 328 330 332 336 348 360 355 352 353 351 351 350 348 347 345 346 342 342 341 348 347 346 344 343 344 348 348 348 347 344 345 348 347 344 348 346 347 345 346 344 344 343 342 341 342 342 344
329 324 325 328 329 334 343 359 352 346 346 350 351 350 350 348 347 346 343 342 339 345 346 346 345 342 341 347 345 347 350 348 348 348 344 344 347 344 346 348 345 344 345 345 344 339 341 341 342
330 325 324 324 327 330 336 358 353 348 348 340 350 349 349 349 349 346 344 343 340 344 345 345 345 340 341 338 345 349 349 349 348 348 349 346 344 345 347 342 346 346 346 345 343 342 344 342 342
328 329 326 325 325 327 335 355 356 352 350 351 343 345 350 349 349 347 345 344 342 342 343 344 345 345 343 344 344 347 349 350 348 348 349 348 349 345 349 343 345 347 348 344 343 344 342 340 342
327 327 328 327 327 323 328 351 350 343 343 345 345 345 350 349 350 349 346 344 343 342 343 343 344 346 344 343 343 347 349 348 349 350 350 344 348 346 346 348 345 348 347 345 343 344 343 343 340
326 326 327 327 327 325 325 349 347 344 344 344 348 350 348 350 349 349 348 345 344 342 342 342 342 347 345 341 341 347 348 347 349 351 350 349 341 349 346 345 349 347 346 339 342 340 343 340 339
324 326 328 327 325 323 325 325 349 345 346 347 348 347 350 347 349 349 348 346 344 343 341 341 342 345 346 344 339 344 347 346 349 347 348 349 342 345 345 343 345 344 347 343 341 344 345 343 341
324 326 325 325 324 323 325 323 328 347 349 346 346 345 345 348 348 348 348 348 345 344 342 341 341 343 344 343 337 346 346 345 348 348 349 347 345 345 349 344 342 345 349 347 344 346 348 345 347
326 325 324 323 322 322 323 324 325 353 349 347 346 336 338 344 345 349 349 347 347 345 343 342 342 340 342 342 337 342 344 346 349 345 349 348 349 346 350 350 347 341 344 344 347 344 347 344 344
323 322 322 323 322 324 323 323 324 327 349 350 347 339 339 346 348 350 349 348 348 347 345 343 343 342 339 339 337 337 339 347 348 349 344 348 348 348 344 350 349 342 344 343 344 342 345 344 344
325 321 322 325 324 324 323 324 325 325 341 346 346 339 340 348 349 350 349 348 348 348 346 345 344 344 343 335 336 333 333 341 346 348 346 349 347 347 347 343 341 337 335 342 343 345 338 342 344
321 323 322 322 322 324 325 325 326 326 325 344 342 341 342 347 349 350 350 349 348 348 348 346 345 345 344 341 332 336 330 339 344 348 350 351 350 345 348 349 348 346 342 340 337 341 341 341 337
319 322 322 321 324 326 325 326 327 328 325 332 343 342 347 349 349 349 350 350 349 348 348 347 347 346 346 344 337 331 332 328 340 345 347 349 350 349 350 350 349 348 347 336 343 344 342 347 348
317 320 320 320 322 325 325 325 325 328 330 329 331 342 345 346 346 350 351 351 351 349 349 349 347 347 347 346 344 334 331 332 332 343 345 347 346 348 347 350 349 348 347 340 338 341 347 346 346
316 316 319 320 322 324 326 328 328 327 331 332 328 344 345 344 342 342 344 346 352 351 351 350 349 348 347 347 347 345 333 329 329 332 345 342 346 344 346 351 351 349 349 345 339 340 342 352 352
Wind_Speed
5 9 8 7 3 2 3 6 5 10 7 16 15 13 9 5 3 5 29 30 32 28 24 21 18 16 13 13 13 11 9 9 9 8 8 10 10 12 11 11 11 11 12 12 12 9 11 13 14
10 7 7 3 2 4 4 5 6 12 20 31 24 25 15 6 15 33 32 31 30 28 23 21 18 15 15 15 13 12 10 9 9 9 10 10 11 12 11 12 12 14 13 11 11 11 12 14 17
10 8 4 3 2 3 7 7 7 23 30 21 11 16 11 16 30 31 33 31 29 27 24 21 18 17 15 13 11 11 10 10 11 11 11 12 12 12 11 13 13 12 13 13 12 11 14 17 19
11 4 6 3 1 5 7 13 20 15 26 25 20 11 21 23 26 38 33 28 30 27 24 22 19 17 15 13 12 12 11 12 12 12 12 11 12 12 12 13 13 13 14 14 15 15 16 19 21
7 3 1 2 6 7 7 19 0 17 15 26 35 17 16 24 34 34 34 32 29 24 23 21 18 16 15 14 13 12 12 12 13 13 12 12 11 11 12 12 13 14 13 13 13 15 18 23 21
6 4 2 5 12 12 11 27 24 18 24 28 30 22 12 39 33 40 36 29 21 24 23 22 19 17 15 15 14 13 13 13 14 13 12 11 11 11 11 12 13 15 16 15 14 14 16 22 21
8 1 4 8 13 8 12 20 20 20 27 21 31 18 26 37 36 40 37 28 22 23 24 22 19 18 16 15 15 14 14 13 14 13 12 12 12 11 9 11 13 13 14 15 14 16 17 21 22
18 3 8 3 2 5 7 14 9 23 19 34 35 11 24 38 37 37 37 25 20 25 23 22 19 17 17 16 15 14 14 14 15 15 15 14 14 14 14 12 14 14 14 13 15 16 16 23 21
26 10 11 3 7 1 5 6 4 3 32 31 14 39 44 40 39 40 37 30 24 19 21 20 20 18 17 17 16 15 16 17 17 17 15 14 16 16 16 13 13 14 14 15 16 16 18 23 19
13 9 8 7 7 6 4 12 16 6 29 22 28 37 43 41 40 41 43 36 25 22 20 20 19 19 16 16 16 17 19 18 18 15 13 13 13 14 14 15 16 16 13 13 13 18 18 18 16
16 15 9 13 19 7 25 20 6 20 10 31 35 41 44 39 39 37 43 33 24 21 20 21 16 20 19 15 20 19 16 12 10 8 11 14 13 10 16 18 18 17 16 10 9 8 9 10 12
13 24 25 19 17 25 14 23 6 11 15 34 45 53 44 35 41 37 38 34 26 27 26 21 20 20 17 19 17 15 15 13 6 12 7 9 9 6 6 9 10 9 7 11 8 11 11 13 17
16 14 23 23 25 30 21 28 17 30 16 27 39 46 38 38 40 33 37 32 27 32 32 27 22 19 16 12 12 11 11 13 13 9 6 8 8 9 8 6 7 10 7 9 14 9 9 11 15
19 20 20 19 14 11 23 26 29 13 12 18 40 41 35 35 40 34 37 34 30 29 35 27 29 23 20 13 10 15 14 11 12 9 5 6 9 8 6 6 8 4 7 7 9 11 10 10 16
24 10 12 10 9 5 19 13 11 11 15 21 32 36 37 34 37 33 39 36 30 30 33 31 27 22 22 18 18 17 15 15 13 9 6 8 10 8 6 6 9 8 8 12 10 9 8 6 11
8 8 7 9 8 17 15 10 10 25 21 21 16 27 35 37 37 28 38 37 36 32 31 29 25 24 25 22 22 14 11 16 11 10 7 8 7 9 7 7 9 9 8 7 11 13 12 14 10
7 7 8 11 15 7 7 15 20 37 27 10 19 21 23 35 37 33 40 38 39 29 30 24 20 25 29 24 24 15 13 11 8 6 7 5 7 7 11 6 7 8 7 9 8 9 11 12 14
8 8 9 9 12 13 12 15 16 26 31 28 11 17 30 31 34 34 39 38 38 30 28 22 20 21 23 23 26 17 13 12 14 8 6 4 6 7 10 13 12 8 8 6 11 15 9 10 13
14 15 13 10 12 9 15 18 24 29 28 35 35 33 34 38 32 34 41 37 38 35 32 27 26 23 22 23 29 22 16 15 13 13 7 8 5 6 8 11 11 8 7 9 11 13 13 11 14
17 16 16 14 14 9 9 13 20 18 27 40 38 30 29 38 36 37 37 43 41 39 36 32 29 27 23 23 30 22 17 17 14 12 12 4 7 4 6 8 10 6 4 8 11 6 10 13 8
15 11 13 12 19 14 6 4 9 12 14 17 20 22 10 43 40 39 35 44 42 41 39 35 35 30 27 23 27 23 17 18 15 15 14 9 6 7 9 8 8 9 5 6 9 13 10 9 10
9 10 12 14 10 5 5 4 6 12 8 15 19 13 9 5 44 41 42 42 46 43 39 36 37 35 30 27 27 28 24 23 19 17 13 8 8 7 5 5 6 10 9 7 17 14 11 10 7
12 10 9 10 9 5 18 3 6 16 7 7 20 9 17 25 33 47 48 42 45 44 42 40 35 39 35 31 29 31 28 25 20 18 17 13 8 9 7 3 5 12 8 10 11 11 7 8 6
6 7 11 7 2 5 11 2 10 11 17 9 16 27 15 41 34 50 52 47 42 46 44 42 38 40 39 35 32 33 32 28 23 23 23 19 15 10 12 11 4 9 11 11 12 11 12 10 10
7 4 3 4 5 10 8 7 10 6 21 26 30 40 48 48 37 44 49 48 44 46 48 47 44 40 42 38 36 34 33 31 26 20 21 22 20 14 16 16 10 9 10 9 10 12 16 14 12
7 7 5 7 5 9 9 8 9 12 19 37 50 56 46 51 46 51 52 52 49 48 49 49 49 45 42 42 41 37 33 34 29 24 22 22 19 17 13 13 8 8 10 10 7 10 16 17 14
9 7 8 6 9 7 6 9 18 11 9 22 34 34 38 35 40 46 52 54 53 50 52 53 51 48 44 42 41 42 36 37 35 30 22 22 17 13 15 17 15 11 8 10 9 9 10 14 16
9 5 3 3 7 12 5 11 6 6 13 14 20 34 39 37 38 39 27 45 56 55 53 52 51 49 44 42 44 45 42 36 38 35 30 29 22 22 12 21 20 16 12 15 12 10 11 11 10
12 3 4 2 3 10 9 7 9 8 7 18 19 41 40 39 38 39 42 32 41 55 53 54 54 50 47 42 41 45 46 42 39 39 35 31 31 28 24 17 21 18 14 15 15 14 13 9 8
15 12 9 4 8 4 3 6 23 13 19 38 16 40 50 53 42 34 29 41 26 45 52 57 58 54 49 44 41 40 46 46 43 41 40 37 32 30 25 20 21 21 17 16 18 16 17 17 17
Wind_Direction
175 141 166 191 239 225 288 301 260 143 98 118 106 106 107 77 168 158 145 155 163 155 158 157 155 148 145 142 139 146 129 115 109 104 98 99 96 98 95 91 89 100 101 103 114 117 123 118 109
157 138 214 264 219 111 289 237 220 99 110 117 112 99 77 86 104 128 138 161 161 156 160 157 152 147 145 142 140 138 132 124 117 112 108 103 104 100 94 94 83 90 108 103 116 110 119 115 113
142 203 231 200 114 162 184 232 83 120 115 114 100 75 71 115 118 135 148 157 155 156 153 150 146 145 145 142 137 134 129 125 120 117 113 106 106 101 95 100 104 105 101 106 108 107 113 115 115
178 225 267 21 146 231 206 187 134 99 95 105 105 74 104 125 133 141 146 143 146 146 149 148 147 143 140 135 133 132 130 126 123 120 121 115 111 107 100 99 98 99 102 106 100 104 109 114 121
193 238 312 148 290 276 268 272 311 123 93 106 110 119 108 133 138 136 132 144 147 146 149 146 144 139 141 144 137 131 128 126 125 122 120 114 107 105 109 108 101 107 105 108 106 103 103 121 123
196 226 215 95 285 277 286 269 130 108 121 118 113 117 122 138 144 141 148 152 155 156 149 144 144 143 142 137 134 130 129 125 127 124 115 105 102 98 104 110 103 107 96 109 102 100 108 126 125
236 193 252 122 225 273 313 283 140 128 128 132 134 120 143 151 148 146 154 154 148 155 149 146 147 144 141 137 131 130 127 123 126 121 111 101 90 90 102 113 110 104 98 97 99 101 106 126 126
222 239 292 41 269 160 254 335 75 139 136 142 134 140 161 159 154 151 154 153 149 147 149 145 145 147 143 140 136 136 126 123 123 117 109 96 85 82 89 114 115 103 96 97 96 103 114 127 130
241 254 278 26 339 238 19 345 277 165 134 156 191 156 151 155 155 144 145 149 145 146 152 149 149 147 143 137 133 128 123 123 123 123 116 94 84 68 79 96 109 110 107 108 107 118 123 131 130
223 241 244 135 293 150 209 64 314 239 149 115 124 149 155 154 161 151 150 151 149 144 149 152 146 146 139 131 125 120 120 120 123 121 106 108 93 72 82 98 102 105 111 119 116 120 126 130 135
245 245 243 197 215 170 137 147 224 345 169 141 147 156 165 167 165 151 156 153 153 150 144 146 131 140 124 128 129 118 122 117 109 87 105 109 115 102 107 99 102 114 123 128 125 139 124 123 119
235 245 255 252 199 175 159 146 229 345 298 153 154 157 166 166 166 155 159 156 153 160 157 153 140 139 126 140 125 124 125 128 95 112 122 133 125 146 123 134 129 129 144 146 122 133 94 123 123
247 253 264 274 163 184 159 157 154 174 182 152 154 162 168 162 168 160 161 155 149 165 172 159 156 157 145 142 144 125 142 128 124 144 162 151 142 107 137 129 134 149 131 90 171 133 84 121 116
257 254 259 269 258 179 134 145 154 215 188 173 161 166 166 165 174 164 157 152 163 176 171 158 161 156 165 169 172 171 168 172 156 156 148 136 138 114 141 107 97 108 142 131 112 130 134 121 108
273 298 303 278 273 246 128 152 98 119 134 164 164 163 165 169 184 167 169 166 163 169 164 168 174 164 165 166 146 153 168 164 157 176 162 168 144 154 137 90 108 131 126 119 144 119 137 132 107
299 292 274 285 251 257 166 123 131 130 134 147 160 169 171 175 188 182 173 171 167 171 172 172 180 180 177 170 154 165 166 162 157 188 215 178 172 149 158 139 116 115 116 109 131 139 128 141 147
282 256 264 265 267 245 204 122 169 153 158 83 173 194 179 182 193 175 178 172 172 179 181 182 192 190 183 177 164 164 159 161 158 159 142 146 161 165 158 149 125 111 115 102 124 150 138 133 150
253 257 234 244 253 244 220 138 173 165 142 122 287 207 192 198 196 172 178 179 171 184 184 180 187 183 179 183 173 152 160 170 166 190 175 146 149 149 156 136 142 142 130 95 129 133 142 149 144
269 279 288 279 246 241 202 151 177 168 140 155 190 241 204 195 199 190 178 181 176 184 187 186 190 193 188 175 176 164 173 173 186 188 208 184 179 142 123 149 140 121 114 138 141 144 142 119 144
254 269 281 288 289 187 228 167 165 168 162 167 186 194 211 187 194 198 181 183 182 185 192 191 191 196 197 183 178 175 175 184 182 185 185 160 175 147 146 135 145 143 132 158 147 160 133 148 123
247 244 270 278 301 310 235 76 147 194 169 177 169 184 214 182 191 196 187 185 186 189 193 193 192 198 201 196 179 176 174 184 190 189 176 172 208 197 173 152 151 160 135 139 162 164 161 157 142
257 262 259 268 290 279 26 281 212 183 165 167 166 154 227 256 189 193 195 185 192 193 195 197 197 198 201 202 189 178 185 185 190 193 198 200 203 191 185 175 169 165 149 150 156 162 146 153 165
250 278 282 283 287 306 295 25 263 158 148 213 143 143 253 259 225 193 196 196 196 196 197 198 204 202 203 205 197 184 185 187 189 202 205 216 194 198 218 198 178 184 174 156 170 167 179 182 178
270 251 274 295 320 292 268 171 280 171 186 156 132 125 258 251 245 196 195 196 195 200 199 200 204 208 208 205 201 192 188 187 193 200 214 212 202 203 202 226 221 181 198 181 184 194 192 191 178
261 288 306 296 284 255 266 265 235 266 186 168 168 180 187 211 216 199 191 192 194 200 203 203 205 209 211 208 204 197 192 188 194 200 204 208 205 206 209 215 215 201 197 196 198 199 196 197 193
253 208 181 229 232 263 250 263 262 251 182 177 179 186 201 194 203 201 192 192 194 202 207 207 207 211 213 209 205 203 196 193 192 197 208 213 221 223 208 214 199 201 210 203 198 197 204 207 207
255 264 240 240 275 279 274 277 258 249 272 176 184 190 201 208 214 195 192 191 194 200 210 212 211 212 215 211 205 204 204 195 195 196 200 207 212 214 217 224 221 216 235 225 211 213 209 205 213
187 236 309 288 223 259 287 288 268 267 237 195 201 187 194 201 180 180 195 194 197 201 211 211 217 215 215 214 209 207 208 202 200 200 203 205 203 213 228 227 225 225 241 229 219 208 212 215 215
337 289 294 262 240 243 264 269 259 247 328 295 198 194 189 188 175 172 185 200 205 203 205 211 216 217 216 216 215 211 211 211 205 205 208 205 211 213 221 216 219 223 235 230 226 220 214 213 226
300 288 240 191 278 245 209 272 279 320 4 353 233 189 187 195 194 187 191 228 217 211 200 210 216 218 220 218 218 218 216 216 214 211 212 214 211 212 221 217 217 221 232 231 227 227 221 229 234